Regional Weather Roundup
Issued by NWS

Home | Current Version | Previous Version | Graphics & Text | Print | Product List | Glossary On
Versions: 1 2 3 4 5 6 7 8 9 10 11 12 13 14 15 16 17 18 19 20 21 22 23 24 25 26 27 28 29 30 31 32 33 34 35 36 37 38 39 40 41 42 43 44 45 46 47 48 49 50
000
ASUS43 KOAX 212310
RWRNE

WEATHER ROUNDUP FOR NEBRASKA
NATIONAL WEATHER SERVICE OMAHA NE
600 PM CDT TUE OCT 21 2014

NOTES: SATELLITE DATA IS BEING USED TO AUGMENT CLOUD COVER ABOVE
       12000 FEET.
       "FAIR" INDICATES FEW OR NO CLOUDS BELOW 12,000 FEET WITH NO
       SIGNIFICANT WEATHER AND/OR OBSTRUCTIONS TO VISIBILITY.

  * THESE STATIONS DO NOT REPORT WEATHER SUCH AS RAIN...SNOW OR FOG.

NEZ001>004-019>022-054>056-220000-
NEBRASKA PANHANDLE

CITY           SKY/WX    TMP DP  RH WIND       PRES   REMARKS
SCOTTSBLUFF    CLOUDY    72  43  35 SE7       29.85S
ALLIANCE       PTCLDY    69  45  41 S10       29.85F
CHADRON        CLEAR     75  45  34 S17       29.77S
KIMBALL        MOSUNNY   73  37  26 SE10      29.88F
SIDNEY         SUNNY     75  45  34 S6        29.88S
$$

NEZ057>060-069>072-079>082-220000-
SOUTHWEST NEBRASKA

CITY           SKY/WX    TMP DP  RH WIND       PRES   REMARKS
NORTH PLATTE   CLEAR     76  53  44 S12       29.89S
IMPERIAL       CLEAR     77  51  40 S20G26    29.88F
LEXINGTON      CLEAR     75  56  51 S15G21    29.93S
MCCOOK         CLEAR     77  54  44 S18G25    29.92S
OGALLALA       CLEAR     79  51  37 S15G22    29.86F
$$

NEZ005>010-023>029-035>040-094-220000-
NORTH CENTRAL NEBRASKA

CITY           SKY/WX    TMP DP  RH WIND       PRES   REMARKS
VALENTINE      CLEAR     75  51  43 S18       29.85S
AINSWORTH      CLEAR     72  47  41 S17G29    29.88S
BROKEN BOW     CLEAR     74  54  49 S17       29.92F
O`NEILL        CLEAR     74  37  26 S15G21    29.93S
ORD            CLEAR     73  51  46 S14G22    29.93S
THEDFORD       CLEAR     76  55  47 S17G24    29.89S
$$

NEZ041-046>049-061>064-073>077-083>087-220000-
SOUTH CENTRAL NEBRASKA

CITY           SKY/WX    TMP DP  RH WIND       PRES   REMARKS
GRAND ISLAND   CLEAR     74  50  42 S13       29.97F
AURORA         HAZE      73  40  29 SE10      29.98S VSB 1
HASTINGS       CLEAR     73  49  42 S13       29.97F
HEBRON         CLEAR     74  42  31 SE12      30.00S
HOLDREGE       CLEAR     73  54  50 S18G26    29.95S
KEARNEY *      CLEAR     73  52  46 SE16G25   29.96S
YORK           CLEAR     73  41  31 S12       29.99S
$$

NEZ011>018-030>034-042>045-220000-
NORTHEAST NEBRASKA

CITY           SKY/WX    TMP DP  RH WIND       PRES   REMARKS
NORFOLK        CLEAR     73  43  33 SE12      29.97S
ALBION         CLEAR     73  35  25 S14       29.96F
BLAIR          CLEAR     72  40  31 SE7       30.03S
COLUMBUS *     CLEAR     73  41  31 SE13      30.00S
FREMONT        CLEAR     73  41  31 SE7       30.02S
TEKAMAH        CLEAR     72  40  31 SE12      30.02S
WAYNE          CLEAR     73  44  35 SE12      29.99S
$$

NEZ050>053-065>068-078-088>093-220000-
SOUTHEAST NEBRASKA

CITY           SKY/WX    TMP DP  RH WIND       PRES   REMARKS
LINCOLN        CLEAR     72  42  34 SE12      30.01F
OMAHA EPPLEY   CLEAR     69  41  36 SE10      30.03S
BEATRICE       CLEAR     73  42  32 SE7       30.01S
FALLS CITY     CLEAR     69  39  33 SE8       30.04S
NEBRASKA CITY  CLEAR     69  28  21 SE7       30.04S
PLATTSMOUTH    CLEAR     70  34  26 SE6       30.04S
$$

NEZ044-045-051>053-067-220000-
OMAHA AREA

CITY           SKY/WX    TMP DP  RH WIND       PRES   REMARKS
OMAHA EPPLEY   CLEAR     69  41  36 SE10      30.03S
BLAIR          CLEAR     72  40  31 SE7       30.03S
FREMONT        CLEAR     73  41  31 SE7       30.02S
MILLARD        CLEAR     70  43  37 SE9       30.03S
OFFUTT AFB     CLEAR     69  41  36 SE8       30.03S
PLATTSMOUTH    CLEAR     70  34  26 SE6       30.04S
WAHOO          FAIR      72  38  29 SE12      30.01S
$$



USA.gov is the U.S. government's official web portal to all federal, state and local government web resources and services.